Weather History for KHUM - December, 2012

Change the Weather History Date:

Thursday, December 13, 2012

  Actual Average Record
Temperature  
Mean Temperature 46 °F -  
Max Temperature 60 °F - - ()
Min Temperature 32 °F - - ()
Degree Days  
Heating Degree Days 19    
Moisture  
Dew Point 37 °F    
Average Humidity 86    
Maximum Humidity 100    
Minimum Humidity 45    
Precipitation  
Precipitation 0.00 in - - ()
Sea Level Pressure  
Sea Level Pressure 30.29 in    
Wind  
Wind Speed 5 mph (NNE)    
Max Wind Speed 14 mph    
Max Gust Speed -    
Visibility 7 miles    
Events Snow    
T = Trace of Precipitation, MM = Missing Value Source: NWS Daily Summary

Daily Weather History Graph

Daily Weather History Graph

Search for Another Location

Airport or City:

Trip Planner

Search our weather history database for the weather conditions in past years. The results will help you decide how hot, cold, wet, or windy it might be!

Date:

Astronomy

Dec. 13, 2012 Rise Set
Actual Time 6:49 AM CST 5:05 PM CST
Civil Twilight 6:22 AM CST 5:31 PM CST
Nautical Twilight 5:53 AM CST 6:01 PM CST
Astronomical Twilight 5:24 AM CST 6:30 PM CST
Moon 6:59 AM CST (12/13) 5:45 PM CST (12/13)
Length of Visible Light 11h 08m
Length of Day
10h 16m
New Moon, 0% of the Moon is Illuminated
Dec 13
New Moon
Dec 19
First Quarter
Dec 28
Full
Jan 4
Last Quarter
Jan 11
New

Hourly Weather History & Observations

Time (CST) Temp. Windchill Dew Point Humidity Pressure Visibility Wind Dir Wind Speed Gust Speed Precip Events Conditions
12:15 AM 37.8 °F 33.3 °F 32.0 °F 80% 30.29 in 10.0 mi North 5.8 mph - N/A   Clear
12:35 AM 36.5 °F 29.7 °F 32.2 °F 84% 30.28 in 7.0 mi North 9.2 mph - N/A   Clear
12:55 AM 38.1 °F 32.9 °F 32.9 °F 81% 30.27 in 7.0 mi NNE 6.9 mph - N/A   Clear
1:15 AM 37.8 °F 32.5 °F 32.9 °F 83% 30.27 in 7.0 mi North 6.9 mph - N/A   Clear
1:35 AM 37.4 °F 32.8 °F 32.9 °F 84% 30.28 in 7.0 mi North 5.8 mph - N/A   Clear
1:55 AM 37.4 °F 33.8 °F 32.9 °F 84% 30.28 in 7.0 mi North 4.6 mph - N/A   Clear
2:15 AM 36.9 °F 32.2 °F 32.7 °F 85% 30.27 in 7.0 mi North 5.8 mph - N/A   Clear
2:35 AM 37.4 °F 34.9 °F 33.1 °F 84% 30.27 in 7.0 mi North 3.5 mph - N/A   Clear
2:55 AM 36.5 °F - 33.1 °F 87% 30.28 in 10.0 mi Calm Calm - N/A   Clear
3:15 AM 35.8 °F - 33.8 °F 92% 30.28 in 7.0 mi Calm Calm - N/A   Clear
3:35 AM 35.2 °F 31.2 °F 34.5 °F 97% 30.27 in 7.0 mi North 4.6 mph - N/A   Clear
3:55 AM 33.4 °F 30.4 °F 32.2 °F 95% 30.27 in 7.0 mi North 3.5 mph - N/A   Clear
4:15 AM 34.7 °F 31.8 °F 32.9 °F 93% 30.28 in 10.0 mi NNW 3.5 mph - N/A   Clear
4:35 AM 34.9 °F 32.0 °F 34.3 °F 98% 30.28 in 10.0 mi WNW 3.5 mph - N/A   Clear
4:55 AM 34.3 °F 30.2 °F 32.4 °F 92% 30.29 in 10.0 mi North 4.6 mph - N/A   Clear
6:50 AM 32.0 °F 26.4 °F 32.0 °F 100% 30.33 in 7.0 mi North 5.8 mph - N/A   Clear
7:50 AM 39.2 °F 37.0 °F 35.6 °F 87% 30.34 in 7.0 mi North 3.5 mph - N/A   Clear
8:49 AM 44.6 °F 39.7 °F 39.2 °F 81% 30.35 in 7.0 mi NNE 9.2 mph - N/A   Clear
9:49 AM 50.0 °F - 39.2 °F 66% 30.37 in 7.0 mi ENE 9.2 mph - N/A   Clear
10:51 AM 53.6 °F - 42.8 °F 67% 30.36 in 7.0 mi NNE 8.1 mph - N/A   Clear
11:50 AM 57.2 °F - 41.0 °F 55% 30.36 in 7.0 mi ENE 11.5 mph - N/A   Clear
12:50 PM 59.0 °F - 41.0 °F 51% 30.28 in 7.0 mi NE 13.8 mph - N/A   Clear
1:50 PM 60.8 °F - 39.2 °F 45% 30.27 in 7.0 mi ENE 11.5 mph - N/A   Clear
2:50 PM 60.8 °F - 39.2 °F 45% 30.25 in 7.0 mi ENE 11.5 mph - N/A   Clear
3:50 PM 60.8 °F - 41.0 °F 48% 30.25 in 7.0 mi NE 11.5 mph - N/A   Clear
6:35 PM 46.9 °F - 42.6 °F 85% 30.26 in 7.0 mi East 3.5 mph - N/A   Clear
7:15 PM 45.1 °F 43.7 °F 42.8 °F 91% 30.26 in 7.0 mi ENE 3.5 mph - N/A   Clear
7:35 PM 43.0 °F 40.3 °F 41.5 °F 95% 30.26 in 10.0 mi ENE 4.6 mph - N/A   Clear
7:55 PM 43.3 °F 41.7 °F 42.8 °F 98% 30.26 in 7.0 mi ENE 3.5 mph - N/A   Clear
8:15 PM 43.9 °F - 43.0 °F 97% 30.28 in 7.0 mi Calm Calm - N/A   Clear
8:35 PM 44.4 °F 42.9 °F 42.8 °F 94% 30.28 in 7.0 mi NE 3.5 mph - N/A   Clear
8:55 PM 43.0 °F - 42.6 °F 99% 30.28 in 5.0 mi Calm Calm - N/A   Clear
9:35 PM 39.9 °F - 39.9 °F 100% 30.29 in 5.0 mi Calm Calm - N/A   Clear
9:55 PM 39.6 °F - 39.6 °F 100% 30.28 in 3.0 mi Calm Calm - N/A   Clear
10:15 PM 39.4 °F - 39.4 °F 100% 30.29 in 7.0 mi Calm Calm - N/A   Clear
10:35 PM 38.8 °F - 38.8 °F 100% 30.28 in 1.0 mi Calm Calm - N/A   Unknown
10:55 PM 38.7 °F - 38.7 °F 100% 30.28 in 3.0 mi Calm Calm - N/A   Clear
11:15 PM 38.1 °F - 38.1 °F 100% 30.28 in 1.0 mi Calm Calm - N/A Snow Light Snow
11:35 PM 37.9 °F - 37.9 °F 100% 30.28 in 7.0 mi Calm Calm - N/A   Clear
11:55 PM 37.6 °F - 37.6 °F 100% 30.28 in 7.0 mi Calm Calm - N/A   Clear